Regional Weather Roundup
Issued by NWS

Home | Current Version | Previous Version | Graphics & Text | Print | Product List | Glossary On
Versions: 1 2 3 4 5 6 7 8 9 10 11 12 13 14 15 16 17 18 19 20 21 22 23 24 25 26 27 28 29 30 31 32 33 34 35 36 37 38 39 40 41 42 43 44 45 46 47 48 49 50
000
ASUS45 KBOI 202110
RWRID
WEATHER ROUNDUP FOR IDAHO
NATIONAL WEATHER SERVICE BOISE ID
300 PM MDT MON APR 20 2015

NOTE: "FAIR" INDICATES FEW OR NO CLOUDS BELOW 12000 FEET
WITH NO SIGNIFICANT WEATHER AND/OR OBSTRUCTIONS TO VISIBILITY

IDZ012-014-202200-
SOUTHWEST IDAHO


CITY           SKY/WX    TMP DP  RH WIND       PRES   REMARKS
BOISE          SUNNY     71  31  22 VRB6      29.89F
CALDWELL       SUNNY     72  34  25 CALM      29.90F
$$

IDZ016-017-202200-
SOUTHCENTRAL IDAHO


CITY           SKY/WX    TMP DP  RH WIND       PRES   REMARKS
BURLEY         SUNNY     67  28  23 W7        29.90F
JEROME         SUNNY     65  25  22 SW5       29.92F
TWIN FALLS     SUNNY     70  28  21 W15       29.92F
$$

IDZ019>023-202200-
SOUTHEAST IDAHO


CITY           SKY/WX    TMP DP  RH WIND       PRES   REMARKS
IDAHO FALLS    MOSUNNY   63  23  21 VRB7      29.93F
POCATELLO      SUNNY     65  21  18 NW9G23    29.94F
REXBURG        MOSUNNY   62  23  22 VRB7      29.92F
$$

IDZ006-010-011-018-031-032-202200-
CENTRAL IDAHO MOUNTAINS


CITY           SKY/WX    TMP DP  RH WIND       PRES   REMARKS
MCCALL         SUNNY     64  27  24 NW7       29.93S
HAILEY         MOSUNNY   64  30  27 S9G18     29.95F
STANLEY          N/A     60  18  19 W8        29.97F
SALMON         SUNNY     64  28  25 N6        29.87F
CHALLIS        SUNNY     65  19  17 VRB3      29.89F
$$

IDZ002-004-006-007-026-202200-
NORTHERN IDAHO


CITY           SKY/WX    TMP DP  RH WIND       PRES   REMARKS
LEWISTON       LGT RAIN  73  32  22 VRB3      29.88F
LOWELL           N/A     74  36  25 S8        29.86F
COEUR D`ALENE  SUNNY     70  36  28 W7        29.91F
MULLAN PASS    SUNNY     55  26  32 VRB3      29.98S
$$



USA.gov is the U.S. government's official web portal to all federal, state and local government web resources and services.